Location: Aufkirchen
(47.9603°N, 11.3653°E)
Time: 11:06:45
(UTC+01:00)

Tiros 1 - Pass Details

Date: 26 November 2020
Orbit: 630 x 663 km, 48.4° (Epoch: 21 January)

Event Time Altitude Azimuth Distance (km) Brightness Sun altitude
Rises 16:35:13 0° 225° (SW) 2,983 12.5 -2.1°
Reaches altitude 10° 16:37:40 10° 218° (SW) 2,071 11.1 -2.4°
Maximum altitude 16:42:07 39° 150° (SSE) 987 8.1 -3.1°
Drops below altitude 10° 16:46:33 10° 82° (E) 2,067 9.2 -3.7°
Enters shadow 16:47:59 - 77° (ENE) 2,597 9.6 -4.0°
Sets 16:48:59 0° 74° (ENE) 2,976 - -4.1°
